SCP
0 0 0 0 0 0 0 0 0 0 0 0 0 0 0 0 0 0 0 0 0 0 0 0 0 0 0 0 0 0 0 0 0 0 0 0 0 0 0 0 0 0 0
0 0 0 0 0 0 0 0 0 0 0 0 0 0 0 0 0 0 0 0 0 0 0 0 0 0 0 0 0 0 0 0 0 0 0 0 0 0 0 0 0 0 0
0 0 0 0 0 0 0 0 0 0 0 0 0 0 0 0 0 0 0 0 0 0 0 0 0 0 0 0 0 0 0 0 0 0 0 0 0 0 0 0 0 0 0
0 0 0 0 0 0 0 0 0 0 0 0 0 0 0 0 0 0 0 0 0 0 0 0 0 0 0 0 0 0 0 0 0 0 0 0 0 0 0 0 0 0 0
0 0 0 0 0 0 0 0 0 0 0 0 0 0 0 0 0 0 0 0 0 0 0 0 0 0 0 0 0 0 0 0 0 0 0 0 0 0 0 0 0 0 0
0 0 0 0 0 0 0 0 0 0 0 0 0 0 0 0 0 0 0 0 0 0 0 0 0 0 0 0 0 0 0 0 0 0 0 0 0 0 0 0 0 0 0
0 0 0 0 0 0 0 0 0 0 0 0 0 0 0 0 0 0 0 0 0 0 0 0 0 0 0 0 0 0 0 0 0 0 0 0 0 0 0 0 0 0 0
0 0 0 0 0 0 0 0 0 0 0 0 0 0 0 0 0 0 0 0 0 0 0 0 0 0 0 0 0 0 0 0 0 0 0 0 0 0 0 0 0 0 0
0 0 0 0 0 0 0 0 0 0 0 0 0 0 0 0 0 0 0 0 0 0 0 0 0 0 0 0 0 0 0 0 0 0 0 0 0 0 0 0 0 0 0
0 0 0 0 0 0 0 0 0 0 0 0 0 0 0 0 0 0 0 0 0 0 0 0 0 0 0 0 0 0 0 0 0 0 0 0 0 0 0 0 0 0 0
0 0 0 0 0 0 0 0 0 0 0 0 0 0 0 0 0 0 0 0 0 0 0 0 0 0 0 0 0 0 0 0 0 0 0 0 0 0 0 0 0 0 0
0 0 0 0 0 0 0 0 0 0 0 0 0 0 0 0 0 0 0 0 0 0 0 0 0 0 0 0 0 0 0 0 0 0 0 0 0 0 0 0 0 0 0
0 0 0 0 0 0 0 0 0 0 0 0 0 0 0 0 0 0 0 0 0 0 0 0 0 0 0 0 0 0 0 0 0 0 0 0 0 0 0 0 0 0 0
0 0 0 0 0 0 0 0 0 0 0 0 0 0 0 0 0 0 0 0 0 0 0 0 0 0 0 0 0 0 0 0 0 0 0 0 0 0 0 0 0 0 0
0 0 0 0 0 0 0 0 0 0 0 0 0 0 0 0 0 0 0 0 0 0 0 0 0 0 0 0 0 0 0 0 0 0 0 0 0 0 0 0 0 0 0
0 0 0 0 0 0 0 0 0 0 0 0 0 0 0 0 0 0 0 0 0 0 0 0 0 0 0 0 0 0 0 0 0 0 0 0 0 0 0 0 0 0 0
0 0 0 0 0 0 0 0 0 0 0 0 0 0 0 0 0 0 0 0 0 0 0 0 0 0 0 0 0 0 0 0 0 0 0 0 0 0 0 0 0 0 0
0 0 0 0 0 0 0 0 0 0 0 0 0 0 0 0 0 0 0 0 0 0 0 0 0 0 0 0 0 0 0 0 0 0 0 0 0 0 0 0 0 0 0
0 0 0 0 0 0 0 0 0 0 0 0 0 0 0 0 0 0 0 0 0 0 0 0 0 0 0 0 0 0 0 0 0 0 0 0 0 0 0 0 0 0 0
0 0 0 0 0 0 0 0 0 0 0 0 0 0 0 0 0 0 0 0 0 0 0 0 0 0 0 0 0 0 0 0 0 0 0 0 0 0 0 0 0 0 0
0 0 0 0 0 0 0 0 0 0 0 0 0 0 0 0 0 0 0 0 0 0 0 0 0 0 0 0 0 0 0 0 0 0 0 0 0 0 0 0 0 0 0
0 0 0 0 0 0 0 0 0 0 0 0 0 0 0 0 0 0 0 0 0 0 0 0 0 0 0 0 0 0 0 0 0 0 0 0 0 0 0 0 0 0 0
0 0 0 0 0 0 0 0 0 0 0 0 0 0 0 0 0 0 0 0 0 0 0 0 0 0 0 0 0 0 0 0 0 0 0 0 0 0 0 0 0 0 0
0 0 0 0 0 0 0 0 0 0 0 0 0 0 0 0 0 0 0 0 0 0 0 0 0 0 0 0 0 0 0 0 0 0 0 0 0 0 0 0 0 0 0
0 0 0 0 0 0 0 0 0 0 0 0 0 0 0 0 0 0 0 0 0 0 0 0 0 0 0 0 0 0 0 0 0 0 0 0 0 0 0 0 0 0 0
0 0 0 0 0 0 0 0 0 0 0 0 0 0 0 0 0 0 0 0 0 0 0 0 0 0 0 0 0 0 0 0 0 0 0 0 0 0 0 0 0 0 0
Wind_Speed
15 15 14 14 14 13 13 14 13 12 12 13 13 13 12 12 11 10 9 9 9 8 7 7 6 5 4 3 3 3 2 3 3 2 1 0 1 2 3 3 3 3 5
14 14 14 13 13 13 14 13 13 13 13 13 13 13 12 12 12 12 11 10 10 10 9 8 7 5 5 4 3 3 3 3 3 3 1 0 1 1 2 3 4 4 4
11 12 13 13 14 14 14 13 13 13 12 12 13 13 13 12 12 11 11 11 10 10 9 9 8 7 6 4 4 4 3 2 2 2 1 0 1 1 2 3 4 3 5
10 12 13 14 14 14 13 12 13 13 13 13 13 12 12 12 11 11 10 10 9 8 8 8 8 8 8 7 5 5 4 3 2 1 1 0 1 1 2 3 4 4 4
10 11 13 12 11 11 11 11 12 12 12 12 12 11 11 10 10 12 11 10 10 8 7 6 6 7 8 7 5 5 5 3 2 1 1 0 1 1 2 2 3 4 4
10 11 10 10 11 12 12 12 12 12 11 12 12 12 11 9 14 17 14 10 10 9 8 6 6 7 8 9 8 8 7 5 4 3 1 1 1 1 1 2 2 3 4
9 9 10 11 12 12 12 12 12 12 12 12 12 12 12 12 18 19 17 11 9 9 9 8 6 6 8 6 7 8 6 5 5 4 3 2 1 1 0 1 1 2 3
8 8 9 10 11 11 12 13 12 10 11 11 11 12 11 12 18 19 18 10 8 8 8 9 9 8 7 9 7 6 4 3 4 3 3 2 1 1 1 0 1 2 3
8 9 10 11 11 12 12 12 10 10 10 9 11 12 11 12 18 19 17 9 8 8 7 8 9 8 12 13 9 7 5 4 5 7 6 5 5 4 4 2 2 3 3
8 8 9 10 11 12 12 11 9 9 9 9 9 10 11 11 18 20 18 9 9 7 6 7 10 10 14 14 8 8 7 4 4 4 5 5 4 4 5 2 1 1 2
5 6 8 9 10 11 10 9 10 9 10 9 9 8 9 12 17 21 19 10 10 9 7 5 6 13 14 13 10 6 7 7 5 4 3 2 3 2 2 2 1 1 1
5 6 7 8 8 9 11 10 10 11 11 10 9 8 6 9 13 16 19 15 14 10 8 6 7 14 14 12 8 9 11 9 4 3 2 2 1 2 2 2 2 1 2
6 7 7 8 8 10 11 12 10 10 9 9 9 9 7 6 9 16 18 18 17 9 8 13 14 15 13 9 10 12 9 5 4 3 2 1 0 0 1 2 2 2 3
6 7 7 8 8 8 8 9 9 10 9 9 9 9 9 8 8 9 9 11 14 11 9 13 16 14 10 10 9 6 4 4 4 3 2 1 0 1 1 1 2 3 3
6 7 7 7 8 8 7 6 8 7 10 12 10 11 12 11 12 17 13 10 9 10 11 8 6 6 5 5 4 4 3 3 3 2 2 1 1 1 1 2 1 2 2
6 7 6 6 6 7 7 6 6 7 10 11 12 12 9 12 20 21 20 20 21 21 13 8 7 6 6 6 5 4 3 3 2 2 2 1 1 1 1 2 2 1 2
6 6 6 6 6 7 7 8 7 7 9 11 15 16 16 20 23 22 22 22 21 19 8 7 7 7 6 5 5 4 3 2 2 2 2 1 1 1 1 1 2 2 3
6 6 6 6 6 7 7 7 8 9 8 6 9 16 20 22 23 23 24 19 11 8 6 7 7 6 6 6 5 4 4 3 3 2 2 2 1 1 1 1 1 2 3
6 5 6 6 6 6 7 7 8 9 8 8 8 10 16 20 21 22 20 9 10 8 7 6 6 6 6 6 5 5 4 4 3 3 2 2 1 1 0 1 1 3 3
5 8 7 6 7 7 7 8 8 9 9 9 9 9 11 11 10 11 8 7 7 7 7 7 6 6 6 6 5 5 4 4 3 3 2 2 1 1 1 1 1 2 2
5 7 9 7 6 7 8 8 8 9 9 9 8 10 15 10 10 10 9 7 7 8 8 7 7 7 6 6 5 6 5 4 3 3 2 2 2 1 0 1 1 1 2
5 6 6 7 7 7 7 7 8 9 10 10 8 10 17 9 8 8 7 7 6 6 7 7 7 6 6 7 7 6 5 5 4 4 3 2 2 1 1 0 1 1 2
6 7 7 7 7 10 8 7 8 9 9 9 10 9 9 8 8 8 8 7 7 7 6 6 7 6 5 5 5 6 6 6 5 5 4 3 2 1 1 0 1 1 2
6 8 8 8 7 8 8 8 8 9 9 10 9 9 9 8 8 8 8 8 7 7 6 6 7 8 9 6 5 4 4 4 5 5 6 4 3 2 1 0 1 1 2
6 7 8 8 8 8 8 8 9 9 9 9 9 9 9 9 9 8 8 8 9 8 8 7 6 8 10 9 7 6 8 9 8 6 5 4 3 2 2 1 1 1 2
6 7 7 7 8 8 9 9 9 10 10 9 9 9 9 9 9 9 9 8 8 8 8 7 8 9 9 7 8 10 11 10 9 9 5 4 4 2 2 1 1 1 1
Wind_Direction
196 195 194 195 193 189 190 191 188 181 178 179 180 179 180 180 179 180 182 178 181 181 178 181 188 176 173 174 166 165 178 176 222 261 248 329 359 347 343 343 337 335 330
195 192 192 191 187 188 191 189 184 181 181 179 176 177 180 180 180 181 182 181 182 183 181 179 185 172 176 170 167 175 183 182 191 236 255 287 313 335 334 333 340 340 323
189 187 187 186 186 190 191 186 182 180 177 175 175 178 180 180 180 183 181 180 183 183 179 180 181 171 179 172 167 171 175 163 168 187 229 252 320 346 340 332 331 326 328
183 184 186 188 189 189 185 181 180 178 176 176 178 179 179 177 177 176 175 175 176 176 175 176 175 177 181 174 169 171 158 148 144 153 187 276 301 336 336 328 332 335 326
180 184 188 186 182 177 176 177 176 176 177 174 173 174 173 173 175 172 171 170 168 165 162 164 167 166 166 162 158 163 154 149 142 141 149 41 300 333 326 318 317 324 314
181 185 178 172 172 174 175 173 171 173 171 169 172 173 174 176 172 169 166 167 165 163 157 152 148 149 150 148 148 149 150 150 157 151 164 211 258 276 288 327 323 338 317
179 177 172 170 172 174 170 170 172 172 169 170 172 172 175 174 169 168 165 160 160 160 156 153 147 145 141 135 132 124 122 120 133 149 158 194 224 236 236 317 311 306 283
172 172 172 171 171 169 169 173 171 167 169 170 170 170 168 170 166 164 157 150 147 151 154 155 151 149 148 137 125 115 104 95 107 112 136 155 155 154 143 141 272 303 288
176 176 174 171 169 168 171 172 164 161 163 165 166 165 164 163 161 156 149 144 140 140 143 147 148 149 150 140 132 127 113 93 89 97 95 89 77 71 71 62 21 7 331
186 180 173 170 169 170 169 163 156 156 157 154 157 161 160 158 159 154 147 143 140 138 134 142 148 148 150 145 140 139 137 133 114 93 76 63 54 47 48 62 80 26 329
175 167 166 167 167 163 157 153 151 147 145 147 147 149 154 156 157 156 153 149 148 144 145 145 149 150 148 146 141 141 143 135 123 111 95 73 54 40 26 24 48 147 208
160 160 162 159 155 152 148 148 148 146 146 146 142 140 140 148 153 158 157 151 147 144 148 147 146 147 143 139 134 133 130 122 115 111 101 78 46 14 356 354 352 322 237
157 159 156 151 151 153 152 151 149 150 151 151 150 149 145 141 148 153 153 148 144 135 140 144 142 141 135 131 130 132 127 120 122 121 119 99 16 316 351 357 356 349 329
160 159 154 151 151 152 151 154 156 159 157 156 156 153 148 147 148 148 146 140 135 127 127 133 132 128 118 121 124 120 113 127 130 133 127 110 77 42 30 7 355 349 346
160 158 156 153 151 149 148 154 159 166 168 164 164 159 159 164 167 157 150 147 144 138 129 119 119 124 121 117 111 110 111 116 112 111 115 112 78 40 13 7 7 1 345
164 160 157 153 149 146 138 118 109 138 149 154 153 151 152 152 152 153 149 147 145 143 132 138 143 145 146 146 143 135 128 131 128 124 121 121 106 56 2 355 0 353 326
170 163 156 155 152 150 147 143 132 112 120 140 147 148 147 149 151 150 148 146 148 145 134 146 151 153 151 151 150 149 150 144 135 133 131 127 109 71 20 353 348 339 326
165 161 160 159 156 154 152 151 148 145 142 132 138 147 147 148 148 148 146 140 144 144 141 150 153 154 152 152 153 149 143 139 139 139 135 132 123 100 24 341 333 322 321
167 163 159 155 152 151 149 146 143 142 141 137 130 139 145 145 145 149 149 145 152 155 151 151 151 151 151 150 149 148 149 154 150 146 144 145 145 125 20 314 313 324 339
170 168 165 155 149 151 151 149 149 148 146 148 151 149 146 143 146 153 154 147 149 152 153 153 151 149 149 149 148 147 148 151 149 147 153 157 160 159 195 275 303 315 314
165 161 161 157 156 156 154 155 154 153 153 153 153 158 158 155 156 157 158 157 157 155 154 151 149 149 148 147 147 150 152 156 156 156 160 165 164 167 212 258 282 302 316
167 165 162 158 154 153 153 154 154 152 152 149 144 153 159 149 150 153 153 153 149 146 147 147 148 152 154 155 154 155 158 161 162 162 164 164 164 168 180 256 312 323 329
163 158 153 151 150 153 152 153 154 153 153 151 151 152 156 153 152 152 150 146 142 139 141 142 144 145 143 146 153 159 164 171 171 167 163 162 163 170 174 219 294 322 327
164 161 157 154 153 155 156 158 156 153 153 153 154 154 154 152 149 146 144 141 140 139 141 143 145 148 146 145 147 150 153 155 154 160 160 159 162 166 167 189 270 301 310
165 162 161 160 159 158 157 157 157 156 155 154 153 152 150 147 146 145 143 141 141 142 142 141 142 146 149 148 147 152 161 159 154 149 149 151 156 164 169 189 250 306 311
164 162 161 160 161 161 160 161 161 158 156 154 152 151 150 150 149 147 145 145 144 143 143 143 144 145 146 147 152 159 161 160 158 154 147 148 153 162 166 183 227 280 307